Zurück zum Katalog

COSMOS 1058

AktivMilitärLEO
NORAD 11135·PAYLOAD·🇷🇺 Russia

Gestartet Dec 5, 1978 von Plesetsk Cosmodrome

Loading…

Nächste Überflüge (nächste 24 Stunden)

TLE

AktuellSource: Space-Track

Epoche: Sep 14, 2026, 12:55 UTC

1 11135U 78109H   26257.53841844 -.00000014  00000-0  11398-4 0  9997
2 11135  74.0145 284.6684 0035737 111.4266  42.6950 12.39504311161731

Verfolge COSMOS 1058 in Echtzeit mit AllMySat

Download on the App Store